#timestamp,LO_Frequency,Hit,StdDev 
1681563615.9,286046995.9,N
1681563635.7,286046997.8,N
1681563655.5,286046995.2,N
1681563675.4,286046993.8,Y
1681563695.2,286046997.5,P
1681563715.1,286046997.4,P
1681563716.0,286046997.4,P
1681563735.8,286046996.1,Y
1681563755.6,286046996.7,P
1681563775.5,286046995.6,P
1681563795.3,286046997.3,P
1681563815.2,286046997.2,Y
1681563835.9,286046998.9,P
1681563855.7,286046996.9,N
1681563875.6,286046998.7,N
1681563895.4,286046999.2,N
1681563915.2,286046997.2,N
1681563935.1,286046995.2,Y
1681563936.0,286046995.2,P
1681563955.8,286046996.8,N
1681563975.7,286046998.6,N
1681563995.5,286046998.6,N
1681564015.3,286046997.0,N
1681564035.2,286046997.3,N
1681564055.0,286046996.6,Y
1681564055.9,286046996.6,P
1681564075.7,286046999.1,N
1681564095.6,286046995.3,P
1681564115.4,286046996.1,N
1681564135.3,286046995.1,Y
1681564155.1,286046999.1,P
1681564175.8,286046996.9,N
1681564195.7,286046998.9,N
1681564215.5,286046997.3,N
1681564235.4,286046997.3,N
1681564255.2,286046997.5,N
1681564275.0,286046996.7,Y
1681564275.9,286046996.7,P
1681564295.8,286046998.1,P
1681564315.6,286046998.4,N
1681564335.4,286046997.6,Y
1681564355.3,286047000.8,P
1681564375.1,286047000.9,N
1681564395.9,286047001.1,N
1681564415.7,286046999.1,N
1681564435.5,286046999.5,N
1681564455.4,286046997.4,N
1681564475.2,286046995.1,Y
1681564495.1,286046996.5,P
1681564496.0,286046996.5,N
1681564515.8,286046999.5,N
1681564535.6,286047001.0,N
1681564555.5,286046998.1,N
1681564575.3,286046998.5,N
1681564595.1,286047002.5,N
1681564615.9,286047002.2,N
1681564635.7,286047001.3,N
1681564655.6,286047003.2,N
1681564675.4,286047006.8,Y
1681564695.2,286047007.6,P
1681564715.1,286047007.4,N
1681564716.0,286047007.4,N
1681564735.8,286047008.3,N
1681564755.7,286047010.7,Y
1681564775.5,286047004.2,P
1681564795.3,286047004.2,P
1681564815.2,286047003.2,P
1681564835.0,286047009.2,Y
1681564835.9,286047009.2,P
1681564855.8,286047003.1,N
1681564875.6,286047005.8,N
1681564895.4,286047003.3,N
1681564915.3,286047003.0,N
1681564935.1,286047007.3,Y
1681564955.8,286047003.8,P
1681564975.7,286047003.8,P
1681564995.5,286047005.3,P
1681565015.4,286047004.6,Y
1681565035.2,286047003.1,P
1681565055.0,286047004.0,P
1681565055.9,286047004.0,P
1681565075.8,286047003.5,Y
1681565095.6,286047002.8,P
1681565115.4,286047002.3,P
1681565135.3,286047001.3,N
1681565155.1,286047002.9,Y
1681565175.9,286047001.6,P
1681565195.7,286047003.7,P
1681565215.5,286047003.9,P
1681565235.4,286047005.8,Y
1681565255.2,286047004.4,P
1681565275.1,286047002.9,P
1681565276.0,286047002.9,P
1681565295.8,286047005.4,Y
1681565315.6,286047003.8,P
1681565335.5,286047003.3,P
1681565355.3,286047004.8,P
1681565375.2,286047006.6,Y
1681565395.9,286047005.4,P
1681565415.7,286047007.1,P
1681565435.6,286047006.5,P
1681565455.4,286047009.2,Y
1681565475.2,286047001.7,P
1681565495.1,286047003.4,N
1681565496.0,286047003.4,N
1681565515.8,286047003.6,N
1681565535.7,286047005.4,Y
1681565555.5,286047001.7,P
1681565575.3,286047004.1,P
1681565595.2,286047004.5,P
1681565615.0,286047004.7,Y
1681565615.9,286047004.7,P
1681565635.8,286047005.7,P
1681565655.6,286047005.0,P
1681565675.4,286047006.3,Y
1681565695.3,286047004.0,P
1681565715.1,286047005.4,P
1681565735.9,286047005.1,P
1681565755.7,286047006.9,Y
1681565775.5,286047001.7,P
1681565795.4,286047002.9,N
1681565815.2,286047005.3,P
1681565835.0,286047007.1,Y
1681565835.9,286047007.1,P
1681565855.8,286047004.1,N
1681565875.6,286047004.9,P
1681565895.5,286047005.0,Y
1681565915.3,286047000.1,P
1681565935.1,286047001.6,N
1681565955.9,286047003.4,N
1681565975.7,286047003.0,N
1681565995.6,286047005.0,Y
1681566015.4,286047004.3,P
1681566035.2,286047005.5,P
1681566055.1,286047005.2,P
1681566056.0,286047005.2,Y
1681566075.8,286047002.2,P
1681566095.7,286047004.3,P
1681566115.5,286047006.0,P
1681566135.3,286047005.5,Y
1681566155.2,286047001.9,P
1681566175.0,286047003.8,P
1681566175.9,286047003.8,P
1681566195.7,286047007.1,Y
1681566215.6,286047003.3,P
1681566235.4,286047003.8,P
1681566255.3,286047005.6,P
1681566275.1,286047007.1,Y
1681566295.8,286047003.5,P
1681566315.7,286047005.9,P
1681566335.5,286047005.4,P
1681566355.4,286047007.0,Y
1681566375.2,286047003.5,P
1681566395.0,286047003.1,P
1681566395.9,286047003.1,P
1681566415.8,286047005.9,Y
1681566435.6,286047004.3,P
1681566455.4,286047004.8,P
1681566475.3,286047006.0,P
1681566495.1,286047005.6,Y
1681566515.9,286047001.6,P
1681566535.7,286047004.0,N
1681566555.5,286047002.9,N
1681566575.4,286047002.9,N
1681566595.2,286047005.6,Y
1681566615.1,286047003.0,P
1681566616.0,286047003.0,P
1681566635.8,286047005.8,P
1681566655.6,286047003.6,Y
1681566675.5,286047002.2,P
1681566695.3,286047002.9,P
1681566715.2,286047005.8,P
1681566735.9,286047005.6,Y
1681566755.7,286047004.3,P
1681566775.6,286047003.7,P
1681566795.4,286047002.9,P
1681566815.2,286047005.1,Y
1681566835.1,286047004.3,P
1681566836.0,286047004.3,P
1681566855.8,286047005.7,P
1681566875.7,286047005.5,Y
1681566895.5,286047002.3,P
1681566915.3,286047001.5,N
1681566935.2,286047004.1,P
1681566955.0,286047005.9,Y
1681566955.9,286047005.9,P
1681566975.8,286047002.7,N
1681566995.6,286047001.4,N
1681567015.4,286047004.2,N
1681567035.3,286047006.0,Y
1681567055.1,286047002.4,P
1681567075.9,286047001.7,P
1681567095.7,286047003.3,P
1681567115.5,286047007.2,Y
1681567135.4,286047003.3,P
1681567155.2,286047003.4,P
1681567175.0,286047005.0,P
1681567175.9,286047005.0,Y
1681567195.8,286047001.4,P
